{"data":{"norad_id":57775,"epoch":"2026-09-20T03:33:55.479456Z","epoch_age_seconds":161643,"freshness":"FRESH","line1":"1 57775U 23134E   26263.14855879  .00001076  00000+0  48628-4 0  9995","line2":"2 57775  43.0029 176.5586 0000879 279.8029  80.2724 15.27579917169248","mean_motion":15.27579917,"eccentricity":8.79e-5,"inclination_deg":43.0029,"raan_deg":176.5586,"arg_perigee_deg":279.8029,"mean_anomaly_deg":80.2724,"bstar":4.8628e-5,"rev_number":16924,"period_min":94.26675383557,"perigee_km":482.44624629183,"apogee_km":483.65244285121,"semimajor_km":6861.1863445715,"source":"CELESTRAK","updated_at":"2026-09-21T09:00:33.684275Z"}}